TimeMST,TemperatureF,Dew PointF,Humidity,Sea Level PressureIn,VisibilityMPH,Wind Direction,Wind SpeedMPH,Gust SpeedMPH,PrecipitationIn,Events,Conditions,WindDirDegrees,DateUTC
12:15 AM,27.3,16.0,62,30.02,10.0,WSW,8.1,-,N/A,,Clear,240,2014-01-19 07:15:00
12:35 AM,29.1,16.7,60,30.01,10.0,West,15.0,-,N/A,,Clear,260,2014-01-19 07:35:00
12:55 AM,27.9,16.3,62,30.01,10.0,West,9.2,-,N/A,,Clear,260,2014-01-19 07:55:00
1:15 AM,25.7,15.8,66,30.01,10.0,WSW,8.1,-,N/A,,Clear,250,2014-01-19 08:15:00
1:35 AM,25.3,15.8,67,30.00,10.0,WSW,11.5,-,N/A,,Clear,240,2014-01-19 08:35:00
1:55 AM,24.8,15.4,68,30.00,10.0,WSW,11.5,-,N/A,,Clear,250,2014-01-19 08:55:00
2:15 AM,22.3,14.5,72,30.00,10.0,WSW,8.1,-,N/A,,Clear,250,2014-01-19 09:15:00
2:35 AM,22.8,15.1,72,30.00,10.0,WSW,8.1,-,N/A,,Clear,240,2014-01-19 09:35:00
2:55 AM,24.1,15.4,70,29.98,10.0,West,4.6,-,N/A,,Clear,260,2014-01-19 09:55:00
3:15 AM,24.4,15.8,70,29.98,10.0,Calm,Calm,-,N/A,,Clear,0,2014-01-19 10:15:00
3:35 AM,26.1,16.2,66,29.98,10.0,Calm,Calm,-,N/A,,Clear,0,2014-01-19 10:35:00
3:55 AM,27.5,16.7,64,29.97,10.0,West,6.9,-,N/A,,Clear,260,2014-01-19 10:55:00
4:15 AM,25.9,16.5,68,29.96,10.0,WSW,9.2,-,N/A,,Clear,250,2014-01-19 11:15:00
4:35 AM,25.7,16.3,68,29.96,10.0,West,5.8,-,N/A,,Clear,270,2014-01-19 11:35:00
4:55 AM,24.6,16.2,70,29.96,10.0,West,5.8,-,N/A,,Clear,280,2014-01-19 11:55:00
5:15 AM,23.9,15.8,71,29.96,10.0,West,8.1,-,N/A,,Clear,270,2014-01-19 12:15:00
5:35 AM,24.1,16.3,72,29.95,10.0,West,9.2,-,N/A,,Clear,280,2014-01-19 12:35:00
5:55 AM,24.3,16.3,72,29.95,10.0,West,8.1,-,N/A,,Clear,260,2014-01-19 12:55:00
6:15 AM,25.5,16.7,69,29.95,10.0,West,3.5,-,N/A,,Clear,280,2014-01-19 13:15:00
6:35 AM,25.3,16.5,69,29.95,10.0,West,5.8,-,N/A,,Clear,280,2014-01-19 13:35:00
6:55 AM,26.4,16.7,67,29.95,10.0,Calm,Calm,-,N/A,,Clear,0,2014-01-19 13:55:00
7:15 AM,26.2,16.9,68,29.95,10.0,WSW,3.5,-,N/A,,Clear,250,2014-01-19 14:15:00
7:35 AM,26.6,17.6,69,29.96,10.0,WSW,5.8,-,N/A,,Clear,250,2014-01-19 14:35:00
7:55 AM,27.5,18.5,69,29.95,10.0,West,6.9,-,N/A,,Clear,260,2014-01-19 14:55:00
8:15 AM,30.2,19.6,65,29.96,10.0,West,11.5,-,N/A,,Clear,260,2014-01-19 15:15:00
8:35 AM,31.8,20.3,62,29.96,10.0,West,9.2,-,N/A,,Clear,260,2014-01-19 15:35:00
8:55 AM,34.5,21.2,58,29.96,10.0,WSW,10.4,-,N/A,,Clear,250,2014-01-19 15:55:00
9:15 AM,36.7,21.0,53,29.96,10.0,WSW,11.5,-,N/A,,Clear,240,2014-01-19 16:15:00
9:35 AM,40.1,22.1,49,29.96,10.0,West,9.2,-,N/A,,Clear,260,2014-01-19 16:35:00
9:55 AM,43.3,21.6,42,29.96,10.0,WSW,10.4,-,N/A,,Clear,250,2014-01-19 16:55:00
10:15 AM,48.7,21.2,34,29.95,10.0,West,12.7,-,N/A,,Clear,280,2014-01-19 17:15:00
10:35 AM,50.9,20.3,30,29.95,10.0,West,11.5,18.4,N/A,,Clear,270,2014-01-19 17:35:00
10:55 AM,55.0,19.4,25,29.93,10.0,West,17.3,26.5,N/A,,Clear,280,2014-01-19 17:55:00
11:15 AM,59.0,16.0,19,29.93,10.0,WNW,23.0,33.4,N/A,,Clear,300,2014-01-19 18:15:00
11:35 AM,59.9,14.5,17,29.91,10.0,WNW,26.5,32.2,N/A,,Clear,300,2014-01-19 18:35:00
11:55 AM,61.9,13.6,15,29.91,10.0,NW,24.2,29.9,N/A,,Clear,310,2014-01-19 18:55:00
12:15 PM,62.6,12.4,14,29.90,10.0,WNW,23.0,27.6,N/A,,Clear,300,2014-01-19 19:15:00
12:35 PM,63.0,11.3,13,29.89,10.0,NW,21.9,31.1,N/A,,Clear,320,2014-01-19 19:35:00
12:55 PM,64.2,11.1,13,29.88,10.0,NW,21.9,27.6,N/A,,Clear,310,2014-01-19 19:55:00
1:15 PM,63.3,10.2,12,29.87,10.0,NW,16.1,25.3,N/A,,Clear,320,2014-01-19 20:15:00
1:35 PM,64.0,10.4,12,29.86,10.0,NW,18.4,27.6,N/A,,Clear,320,2014-01-19 20:35:00
1:55 PM,64.4,9.5,12,29.85,10.0,NW,20.7,25.3,N/A,,Clear,310,2014-01-19 20:55:00
2:15 PM,64.9,9.0,11,29.85,10.0,NW,21.9,26.5,N/A,,Clear,310,2014-01-19 21:15:00
2:35 PM,64.9,8.2,11,29.85,10.0,NW,18.4,25.3,N/A,,Clear,310,2014-01-19 21:35:00
2:55 PM,64.4,8.1,11,29.85,10.0,WNW,18.4,25.3,N/A,,Clear,300,2014-01-19 21:55:00
3:15 PM,64.0,7.7,11,29.85,10.0,NW,17.3,27.6,N/A,,Clear,310,2014-01-19 22:15:00
3:35 PM,63.1,8.2,12,29.86,10.0,NW,12.7,-,N/A,,Clear,310,2014-01-19 22:35:00
3:55 PM,61.7,8.8,12,29.85,10.0,WNW,17.3,23.0,N/A,,Clear,300,2014-01-19 22:55:00
4:15 PM,59.2,9.3,14,29.85,10.0,WNW,9.2,-,N/A,,Clear,300,2014-01-19 23:15:00
4:35 PM,54.9,9.9,17,29.86,10.0,WSW,3.5,-,N/A,,Clear,240,2014-01-19 23:35:00
4:55 PM,52.5,9.9,18,29.87,10.0,Calm,Calm,-,N/A,,Clear,0,2014-01-19 23:55:00
5:15 PM,51.8,10.4,19,29.87,10.0,West,3.5,-,N/A,,Clear,280,2014-01-20 00:15:00
5:35 PM,49.5,10.2,21,29.87,10.0,West,4.6,-,N/A,,Clear,280,2014-01-20 00:35:00
5:55 PM,39.4,8.2,28,29.88,10.0,WSW,3.5,-,N/A,,Clear,240,2014-01-20 00:55:00
6:15 PM,39.2,8.6,28,29.88,10.0,WNW,3.5,-,N/A,,Clear,290,2014-01-20 01:15:00
6:35 PM,36.1,10.4,35,29.88,10.0,NW,5.8,-,N/A,,Clear,310,2014-01-20 01:35:00
6:55 PM,36.3,9.9,33,29.89,10.0,South,3.5,-,N/A,,Clear,190,2014-01-20 01:55:00
7:15 PM,35.6,11.1,36,29.89,10.0,Calm,Calm,-,N/A,,Clear,0,2014-01-20 02:15:00
7:35 PM,34.5,10.6,37,29.90,10.0,West,3.5,-,N/A,,Clear,260,2014-01-20 02:35:00
7:55 PM,37.6,12.4,36,29.89,10.0,Calm,Calm,-,N/A,,Clear,0,2014-01-20 02:55:00
8:15 PM,36.0,12.6,38,29.89,10.0,West,3.5,-,N/A,,Clear,280,2014-01-20 03:15:00
8:35 PM,34.3,13.1,42,29.89,10.0,Calm,Calm,-,N/A,,Clear,0,2014-01-20 03:35:00
8:55 PM,37.2,12.2,36,29.90,10.0,West,4.6,-,N/A,,Clear,260,2014-01-20 03:55:00
9:15 PM,33.6,13.8,44,29.90,10.0,WNW,3.5,-,N/A,,Clear,300,2014-01-20 04:15:00
9:35 PM,32.0,13.5,46,29.91,10.0,Calm,Calm,-,N/A,,Clear,0,2014-01-20 04:35:00
9:55 PM,31.8,12.7,45,29.91,10.0,WSW,6.9,-,N/A,,Clear,250,2014-01-20 04:55:00
10:15 PM,31.1,13.5,48,29.91,10.0,West,3.5,-,N/A,,Clear,270,2014-01-20 05:15:00
10:35 PM,30.6,14.2,51,29.91,10.0,West,5.8,-,N/A,,Clear,270,2014-01-20 05:35:00
10:55 PM,26.4,13.1,57,29.92,10.0,West,8.1,-,N/A,,Clear,260,2014-01-20 05:55:00
11:15 PM,27.7,14.0,57,29.92,10.0,West,3.5,-,N/A,,Clear,270,2014-01-20 06:15:00
11:35 PM,27.1,14.4,59,29.92,10.0,WSW,8.1,-,N/A,,Clear,240,2014-01-20 06:35:00
11:55 PM,28.9,14.2,54,29.92,10.0,West,9.2,-,N/A,,Clear,280,2014-01-20 06:55:00